Tracking 19170 objects as of 23-May-2018
HD Live streaming from Space Station
objects crossing your sky now

NOAA 16 DEB

Track NOAA 16 DEB now!
10-day predictions


NORAD ID: 42425
Int'l Code: 2000-055TV
Perigee: 860.4 km
Apogee: 899.7 km
Inclination: 98.9 °
Period: 102.4 minutes
Semi major axis: 7251 km
RCS: Unknown
Launch date: September 21, 2000
Source: United States (US)
Launch site: AIR FORCE WESTERN TEST RANGE (AFWTR)

Note: This is SATELLITE DEBRIS
aabbcc
Your satellite tracking list
Your tracking list is empty




NASA's NSSDC Master Catalog

Two Line Element Set (TLE):
1 42425U 00055TV  18143.13530042  .00000406  00000-0  27305-3 0  9992
2 42425  98.8708 208.5008 0027142 258.5531 101.2589 14.06055935 91438
Source of the keplerian elements: AFSPC